Oliver, British Columbia

4:23 AM PST on December 15, 2017 (GMT -0800)
Oliver

Weather History for 71215 - December, 2013

Change the Weather History Date:

Sunday, December 15, 2013

  Actual Average Record
Temperature  
Mean Temperature 36 °F -  
Max Temperature 41 °F - - ()
Min Temperature 31 °F - - ()
Degree Days  
Heating Degree Days 28    
Moisture  
Dew Point 31 °F    
Average Humidity 81    
Maximum Humidity 90    
Minimum Humidity 70    
Precipitation  
Precipitation 0.00 in - - ()
Sea Level Pressure  
Sea Level Pressure 30.28 in    
Wind  
Wind Speed 5 mph ()    
Max Wind Speed 7 mph    
Max Gust Speed -    
T = Trace of Precipitation, MM = Missing Value Source: Averaged Metar Reports

Daily Weather History Graph

Daily Weather History Graph

Search for Another Location

Airport or City:

Trip Planner

Search our weather history database for the weather conditions in past years. The results will help you decide how hot, cold, wet, or windy it might be!

Date:

Astronomy

Dec. 15, 2013 Rise Set
Actual Time 7:45 AM PST 4:00 PM PST
Civil Twilight 7:08 AM PST 4:37 PM PST
Nautical Twilight 6:27 AM PST 5:18 PM PST
Astronomical Twilight 5:49 AM PST 5:57 PM PST
Moon 3:14 PM PST 5:59 AM PST
Length of Visible Light 9h 29m
Length of Day
8h 14m
Waxing Gibbous, 98% of the Moon is Illuminated
Dec 15
Waxing Gibbous
Dec 17
Full
Dec 25
Last Quarter
Jan 1
New
Jan 7
First Quarter

Hourly Weather History & Observations

Time (PST) Temp. Windchill Dew Point Humidity Pressure Visibility Wind Dir Wind Speed Gust Speed Precip Events Conditions
12:00 AM 35.8 °F 30.1 °F 29.8 °F 79% 30.32 in - SSE 6.9 mph - N/A   Unknown
1:00 AM 36.3 °F 32.5 °F 30.0 °F 78% 30.31 in - SSE 4.6 mph - N/A   Unknown
2:00 AM 35.2 °F 32.4 °F 29.3 °F 79% 30.30 in - SE 3.5 mph - N/A   Unknown
3:00 AM 35.2 °F 29.5 °F 30.6 °F 83% 30.30 in - SSE 6.9 mph - N/A   Unknown
4:00 AM 35 °F - 31 °F 82% 30.27 in - SE 6.9 mph - -  
4:00 AM 34.5 °F 28.6 °F 31.5 °F 89% 30.27 in - SE 6.9 mph - N/A   Unknown
5:00 AM 34.9 °F 29.0 °F 31.8 °F 89% 30.27 in - SSE 6.9 mph - N/A   Unknown
6:00 AM 34.9 °F 29.0 °F 31.6 °F 88% 30.25 in - South 6.9 mph - N/A   Unknown
7:00 AM 34.5 °F 30.4 °F 31.5 °F 89% 30.26 in - SSE 4.6 mph - N/A   Unknown
8:00 AM 32.9 °F 29.8 °F 30.4 °F 90% 30.25 in - SSE 3.5 mph - N/A   Unknown
9:00 AM 36.9 °F 32.2 °F 31.5 °F 81% 30.26 in - SSE 5.8 mph - N/A   Unknown
10:00 AM 36 °F - 32 °F 80% 30.27 in - South 3.5 mph - -  
10:00 AM 36.0 °F 33.3 °F 32.0 °F 86% 30.27 in - South 3.5 mph - N/A   Unknown
11:00 AM 38.5 °F 33.4 °F 31.3 °F 75% 30.28 in - SSE 6.9 mph - N/A   Unknown
12:00 PM 39.7 °F 35.6 °F 31.6 °F 73% 30.27 in - SSE 5.8 mph - N/A   Unknown
1:00 PM 40.3 °F 36.3 °F 31.3 °F 70% 30.24 in - South 5.8 mph - N/A   Unknown
2:00 PM 40.8 °F 36.2 °F 31.6 °F 70% 30.23 in - SSE 6.9 mph - N/A   Unknown
3:00 PM 39.4 °F 34.5 °F 31.5 °F 73% 30.25 in - SSE 6.9 mph - N/A   Unknown
4:00 PM 38 °F - 32 °F 73% 30.27 in - SE 6.9 mph - -  
4:00 PM 37.9 °F 32.7 °F 31.6 °F 78% 30.27 in - SE 6.9 mph - N/A   Unknown
5:00 PM 37.8 °F 32.5 °F 32.0 °F 80% 30.27 in - SSE 6.9 mph - N/A   Unknown
6:00 PM 37.6 °F 34.0 °F 31.6 °F 79% 30.28 in - SE 4.6 mph - N/A   Unknown
7:00 PM 37.4 °F 34.9 °F 31.8 °F 80% 30.28 in - South 3.5 mph - N/A   Unknown
8:00 PM 36.1 °F 33.5 °F 30.9 °F 81% 30.28 in - SSE 3.5 mph - N/A   Unknown
9:00 PM 36.3 °F 33.7 °F 30.9 °F 81% 30.30 in - SSW 3.5 mph - N/A   Unknown
10:00 PM 35 °F - 30 °F 76% 30.32 in - South 3.5 mph - -  
10:00 PM 34.9 °F 32.0 °F 30.2 °F 83% 30.32 in - South 3.5 mph - N/A   Unknown
11:00 PM 31.5 °F - 28.8 °F 90% 30.33 in - SE 1.2 mph - N/A   Unknown